Theta_e
359 358 356 355 354 353 356 353 352 356 356 351 351 350 347 351 346 342 342 344 339 344 345 344 355 359 361 366 354 359 363 360 360 362 363 359 371 359 354 360 361 362 361 359 361 360 361 360 361 361 360 357 355 355 354 353 349 342 341 344 345 342 340 338 339 340 341 340 341 342 344 347 348 350
362 359 360 358 353 356 353 353 352 358 359 352 352 352 354 355 350 348 344 346 347 342 347 347 351 364 361 357 355 351 359 364 362 360 362 359 360 356 355 357 358 358 359 358 358 359 360 361 361 361 362 360 358 357 355 354 352 349 345 343 345 345 341 340 339 340 341 340 340 341 343 345 347 348
362 363 360 361 358 358 356 356 355 357 358 354 352 352 353 353 355 353 351 345 351 348 344 346 351 351 355 354 353 352 355 356 358 360 366 363 358 355 364 357 357 356 356 356 356 356 357 357 356 356 356 357 357 357 358 357 355 352 349 345 343 344 343 340 339 340 340 341 340 340 342 344 346 346
360 363 360 362 361 360 359 357 355 355 359 357 353 354 354 356 356 357 355 351 350 353 346 348 349 351 354 357 357 358 354 353 359 369 361 372 358 368 359 359 358 356 355 354 353 352 352 350 350 353 354 355 356 357 358 357 356 355 352 349 347 345 343 341 339 340 340 339 341 340 341 342 344 345
363 366 365 365 366 367 361 359 357 355 357 361 357 356 355 353 358 357 356 352 352 356 357 352 351 352 355 353 356 356 355 354 359 358 361 363 358 357 354 364 356 354 353 352 351 350 349 348 347 349 351 352 354 356 356 355 354 353 352 350 345 341 342 341 339 340 340 340 340 340 341 342 343 344
364 367 365 362 363 364 363 360 357 357 354 355 355 357 357 357 358 363 360 357 355 353 361 358 361 357 355 355 361 358 356 357 361 358 359 357 355 355 359 354 369 351 353 351 350 349 347 345 345 346 348 351 352 352 352 351 349 349 349 347 342 340 339 339 338 339 341 341 340 340 341 342 342 343
365 364 364 361 361 358 361 362 359 355 357 359 359 358 359 357 359 360 366 363 357 356 357 362 358 359 359 358 358 360 358 363 360 360 357 353 351 353 354 353 352 350 350 350 350 348 347 345 344 344 344 346 348 348 348 346 344 344 342 339 339 339 338 335 336 337 340 341 341 340 340 341 342 342
363 362 364 362 360 359 360 365 363 362 361 362 362 362 363 364 363 366 362 364 362 359 356 360 358 358 357 357 360 358 359 355 356 354 357 355 355 354 353 352 348 358 348 349 348 348 347 345 343 342 342 342 341 342 342 341 340 338 338 337 336 335 335 332 330 333 334 338 337 340 340 340 340 340
364 364 362 363 362 361 360 363 362 360 361 363 363 361 362 362 363 363 364 364 364 361 356 357 361 361 359 360 361 360 356 354 355 359 361 354 355 357 354 351 347 349 344 347 346 345 346 346 343 342 341 340 338 338 338 338 336 336 334 332 331 333 333 331 329 328 329 330 332 334 337 340 339 339
361 359 360 359 361 361 361 360 360 364 364 364 360 360 362 361 362 362 363 362 361 360 360 359 354 360 353 355 357 358 357 350 351 354 357 358 359 360 354 353 351 347 345 345 356 349 345 342 339 342 342 339 337 337 337 338 336 333 330 327 329 332 330 328 328 326 325 325 326 328 332 335 337 337
362 360 359 361 360 360 360 359 359 360 360 358 360 363 361 360 360 357 356 355 354 354 353 352 353 351 352 354 351 355 357 355 354 352 350 352 354 359 359 360 358 356 352 351 346 347 347 349 352 342 337 337 337 336 335 335 333 333 330 327 326 326 327 328 326 324 324 324 323 324 325 326 330 334
360 360 360 358 360 360 362 361 360 361 358 361 360 362 363 363 360 357 354 354 353 353 350 348 347 350 356 356 353 351 355 355 355 352 350 351 354 357 365 360 355 358 358 355 351 346 348 344 348 343 340 339 338 336 335 337 339 336 332 329 330 329 326 325 325 324 322 322 322 322 323 323 324 328
360 360 360 361 360 364 365 368 368 368 363 358 363 364 363 363 360 360 359 356 356 355 352 352 354 349 351 352 354 346 347 349 348 351 350 353 352 353 352 358 359 358 354 353 350 351 356 356 354 354 356 364 351 347 340 347 342 338 332 330 331 330 328 325 324 324 323 321 321 321 322 322 321 322
360 358 357 355 361 367 364 367 366 370 372 367 362 363 365 365 364 363 361 360 357 354 352 350 348 344 342 341 348 344 345 349 352 349 352 349 348 355 353 358 358 359 357 355 360 358 361 359 358 360 357 357 371 368 361 360 357 343 334 332 331 330 329 326 324 322 322 321 320 320 319 320 320 320
359 358 356 356 365 370 369 366 373 372 367 368 367 364 366 367 363 358 354 354 354 352 350 348 345 342 345 345 348 347 344 346 346 346 353 350 352 354 353 351 361 370 364 367 361 362 364 365 359 361 359 356 356 355 356 350 349 342 337 334 333 331 330 329 326 324 322 321 321 320 318 318 319 319
358 356 354 353 352 355 359 356 369 371 370 366 367 365 366 366 367 363 365 360 354 353 349 349 349 348 349 350 352 347 347 353 357 360 361 361 357 357 355 355 354 364 366 360 361 357 362 362 358 359 358 359 356 352 366 337 340 338 336 334 332 330 330 330 330 328 324 323 324 323 322 320 320 319
358 358 356 356 354 349 363 361 359 368 368 364 363 365 368 369 361 349 346 350 363 363 360 356 354 352 353 355 356 357 360 365 362 363 360 362 360 360 357 356 354 362 371 364 358 354 358 360 358 357 359 356 357 354 342 337 340 336 334 333 332 332 332 330 329 329 328 325 322 320 320 321 321 320
359 361 361 359 358 359 359 363 360 361 361 364 371 372 370 369 369 361 349 346 346 353 356 356 355 360 361 358 363 368 369 363 362 361 361 362 361 360 360 362 362 366 366 360 358 356 358 360 358 356 358 358 359 362 349 336 337 335 334 333 332 331 331 331 329 328 327 326 324 321 319 318 318 318
361 361 364 365 362 364 364 354 361 367 364 367 365 364 363 362 364 362 363 364 361 359 357 359 360 362 363 362 363 363 363 361 361 361 360 359 358 358 360 361 363 362 366 362 358 352 354 356 354 354 356 353 355 357 348 341 335 335 334 334 333 330 330 330 329 327 326 325 324 323 320 318 316 316
362 363 364 366 365 362 355 341 338 348 362 362 360 359 359 361 359 358 359 341 346 359 359 359 358 360 360 344 359 361 356 360 363 363 362 361 360 357 354 352 353 352 358 362 358 353 353 357 351 354 358 358 358 361 361 342 335 336 334 334 332 329 327 328 328 328 326 325 324 323 321 317 315 315
364 363 363 363 359 360 351 333 326 333 355 361 360 361 358 359 357 356 358 349 342 339 335 332 333 331 330 330 329 329 331 346 351 356 356 356 357 353 350 351 351 351 354 356 358 354 351 356 356 354 357 359 357 358 360 364 340 332 334 332 332 329 327 326 327 327 326 325 324 322 321 318 316 316
361 358 365 365 361 354 344 324 324 328 350 359 360 359 357 356 356 357 359 361 360 346 338 337 333 332 332 332 331 331 330 330 338 355 354 355 356 354 352 349 351 352 356 357 360 357 355 356 358 355 357 359 360 358 361 366 359 335 332 328 328 329 329 326 325 326 326 325 324 322 320 318 317 327
354 353 349 346 342 341 330 318 320 324 340 349 352 353 353 352 354 355 352 352 352 355 356 358 363 365 359 368 368 366 350 342 350 358 359 360 356 352 351 352 352 350 352 361 366 356 355 355 356 356 352 349 355 360 361 361 361 362 371 369 359 332 328 326 324 322 324 324 323 322 320 317 317 338
345 353 351 340 322 319 317 314 314 316 320 343 342 345 347 350 351 344 338 341 342 343 343 347 350 351 356 359 361 362 363 363 367 364 363 364 363 355 353 352 352 349 351 359 363 356 356 357 354 359 355 348 347 355 360 360 362 363 362 364 363 347 335 331 329 324 321 320 320 321 320 316 318 342
348 351 351 346 323 316 313 312 310 311 314 323 341 345 346 344 341 337 342 341 343 341 344 344 343 343 345 346 345 344 350 358 369 364 361 367 364 360 356 352 350 350 354 360 356 362 355 356 354 356 356 354 351 351 356 358 361 361 364 362 363 366 368 370 360 365 333 321 318 317 317 316 315 332
344 349 353 352 325 312 312 309 308 308 313 318 340 349 317 316 322 342 344 346 344 340 339 339 340 341 342 343 346 346 347 348 351 353 358 368 365 363 362 359 354 350 350 364 347 360 354 354 354 351 352 352 352 353 352 354 359 359 362 362 362 364 367 366 369 372 369 368 364 336 330 317 316 317
346 347 349 344 329 310 307 305 306 308 310 317 337 313 314 319 319 330 344 346 346 348 349 348 346 346 347 347 345 347 348 348 353 351 352 353 355 358 356 356 354 352 353 358 361 359 358 355 357 354 351 352 351 351 351 351 353 359 358 358 361 362 363 362 363 364 365 368 372 341 326 320 316 316
345 342 342 334 309 306 304 305 307 309 314 331 316 312 315 319 329 341 345 345 350 349 346 344 344 346 345 346 347 347 349 348 353 352 352 354 355 357 355 357 357 359 358 357 358 360 361 358 357 361 360 351 348 348 347 353 354 354 353 356 358 358 358 359 364 363 363 365 363 365 364 353 340 329
335 325 311 308 309 311 309 308 309 314 318 314 313 312 316 335 341 341 346 349 349 346 344 343 343 343 344 346 346 351 353 354 354 355 353 355 355 354 356 357 359 357 354 354 357 359 359 356 355 359 358 356 351 352 351 350 352 352 352 352 352 356 358 360 361 365 365 365 369 362 361 363 362 345
320 315 313 312 312 315 319 334 342 339 341 331 327 325 331 340 339 343 345 345 342 342 339 339 340 342 345 344 351 355 356 353 350 351 350 348 349 350 349 348 349 352 353 354 355 356 357 357 357 357 355 355 353 351 352 350 350 352 352 351 352 356 357 359 362 362 364 362 360 361 361 362 362 362
338 336 336 329 324 321 321 321 322 325 330 334 335 337 340 342 344 348 346 343 341 343 341 341 342 344 345 347 351 352 351 349 350 347 346 343 343 343 344 344 343 344 348 351 351 352 353 354 355 353 350 350 350 352 352 352 349 350 352 353 352 346 351 357 362 366 364 364 362 362 363 363 363 360
330 331 334 330 338 341 340 340 337 337 341 340 339 338 338 339 341 339 339 341 344 344 341 342 343 342 345 343 341 341 340 340 342 344 342 342 341 341 342 340 339 338 340 342 343 349 352 352 352 354 352 350 347 348 350 350 348 348 350 351 352 353 355 356 356 359 363 363 358 356 358 357 358 359
330 333 335 336 337 338 336 335 335 334 335 338 338 338 341 339 334 340 340 338 338 339 338 336 337 336 335 335 336 336 336 337 336 340 341 340 339 343 341 337 336 335 335 336 338 340 344 346 352 353 353 352 351 349 345 342 345 348 346 348 351 351 352 353 353 354 358 355 353 351 352 355 357 359
326 330 334 332 329 327 327 327 330 333 334 335 335 337 333 335 335 337 336 335 334 335 336 335 333 334 333 333 334 334 333 334 334 334 332 336 340 338 334 333 333 334 335 333 334 335 340 343 347 348 350 350 344 348 347 342 341 344 345 346 349 348 347 348 346 347 351 349 347 343 344 347 351 354
332 333 330 329 330 332 333 331 329 329 328 329 332 334 334 334 334 335 332 333 333 333 331 330 331 330 330 330 330 330 330 330 328 328 331 333 335 331 330 329 330 332 333 333 334 336 337 340 340 335 336 336 334 340 344 353 342 340 342 344 343 340 341 340 337 339 343 344 341 339 336 336 340 349
328 330 328 327 328 329 327 331 333 331 332 332 333 333 330 332 335 333 331 330 333 332 329 328 327 328 328 328 328 328 327 325 326 327 328 327 328 328 328 328 328 329 330 330 330 331 333 332 329 324 322 323 326 326 330 342 345 342 337 337 338 339 336 335 337 336 332 331 334 335 331 332 334 340
327 329 328 327 330 329 328 331 330 333 334 334 333 333 333 333 333 333 332 329 330 328 327 326 325 326 325 326 325 324 326 325 325 326 326 327 328 327 326 326 327 328 327 328 329 329 329 326 324 323 323 324 324 323 325 336 343 344 342 329 331 328 329 329 330 330 329 332 333 331 331 332 333 337
328 328 327 327 327 328 330 331 330 330 331 331 330 330 330 330 330 330 331 329 326 325 325 324 324 324 324 324 323 323 324 325 325 325 324 325 325 325 325 324 324 325 325 327 326 325 325 325 325 326 325 323 322 322 324 329 331 330 326 331 326 325 327 328 327 328 333 336 335 337 337 334 335 338
326 326 325 325 326 329 328 328 327 327 328 327 327 326 326 326 326 326 325 324 324 323 323 322 322 322 323 323 323 323 322 322 323 322 323 323 323 323 322 322 322 323 322 322 322 323 324 324 325 325 325 324 322 322 322 322 322 327 324 318 328 330 331 331 331 333 334 334 334 335 334 336 333 328
323 324 324 325 325 326 325 326 324 325 324 325 324 325 324 323 323 323 324 322 323 323 321 321 321 319 322 322 321 321 321 321 320 320 321 320 320 321 321 322 320 319 318 318 319 321 321 322 324 325 324 323 324 325 325 325 325 328 330 332 317 328 337 334 330 330 328 328 329 326 326 330 329 335
322 322 322 322 322 322 322 321 321 321 322 322 323 322 322 322 321 321 321 320 320 321 320 321 322 321 320 320 320 319 318 318 319 318 319 319 319 319 318 316 316 316 316 316 318 319 320 322 328 322 328 326 327 327 324 321 320 322 323 325 319 318 316 322 337 331 329 330 329 326 325 325 325 325
321 320 319 320 320 319 319 319 320 320 320 320 320 321 321 321 320 321 319 321 322 322 319 319 319 319 319 319 319 318 318 317 316 317 318 318 316 315 314 314 314 316 316 316 316 317 320 324 325 325 324 323 321 318 317 318 318 320 323 324 327 321 320 318 316 318 334 332 328 323 322 322 324 323
319 319 318 317 318 318 318 318 318 318 317 317 317 319 317 318 318 317 318 318 319 317 317 317 317 317 317 317 317 317 316 315 315 314 313 312 312 312 312 313 315 315 315 315 316 317 318 320 321 319 319 319 320 320 318 319 320 319 320 321 323 325 326 321 320 319 318 319 319 323 329 326 322 319
316 316 316 316 316 317 318 317 317 317 317 316 315 316 315 315 315 315 316 315 315 315 315 315 315 314 314 314 314 313 312 311 310 310 310 311 311 312 312 312 312 312 313 313 313 314 315 316 317 317 315 315 315 315 314 315 316 317 318 319 321 321 320 321 324 321 319 320 318 316 315 316 320 322
314 314 315 315 315 315 316 316 315 315 315 315 314 314 314 314 313 313 314 313 312 312 312 311 311 312 310 310 309 307 308 308 308 309 309 309 309 309 309 309 309 309 309 310 310 311 312 312 313 314 314 314 315 314 314 314 313 314 314 315 316 316 317 318 318 318 318 319 318 318 317 317 317 317
Wind_Speed
5 4 4 4 3 4 3 4 5 2 2 3 3 2 2 2 2 3 3 3 6 5 6 1 4 2 6 4 5 3 4 2 5 3 4 5 2 10 10 9 8 10 11 11 11 12 11 13 13 12 12 12 11 11 10 9 7 7 7 7 8 7 7 5 6 6 6 6 6 6 6 6 7 6
4 4 3 3 3 3 4 4 4 0 2 3 4 2 0 1 2 2 4 4 5 6 5 6 2 7 5 2 2 6 2 9 4 4 5 5 5 2 5 9 9 10 11 12 13 12 12 12 12 12 13 13 13 12 12 11 10 9 8 8 8 9 8 7 7 7 7 7 7 7 7 7 7 7
4 3 4 3 4 4 4 5 4 2 2 3 3 3 2 3 3 3 3 5 3 5 7 7 7 6 3 4 4 5 5 4 2 5 4 6 6 9 9 9 10 11 12 12 13 13 12 13 12 12 12 12 12 12 13 13 12 12 10 9 9 9 9 9 9 9 8 8 8 8 9 9 8 8
2 3 4 3 3 4 4 4 5 4 3 3 4 4 3 2 4 3 3 4 5 5 7 7 7 7 6 5 3 4 6 3 6 3 6 6 5 9 9 13 14 12 12 13 12 12 12 12 13 13 13 13 13 12 13 13 13 13 12 10 10 9 9 9 10 10 10 9 9 9 10 10 10 9
3 2 3 4 4 4 5 4 5 5 3 4 4 4 4 4 3 3 2 4 5 4 5 6 7 8 7 5 5 6 5 6 5 7 6 6 7 7 6 1 13 12 12 13 13 13 12 12 13 13 13 13 12 13 13 13 13 13 13 12 11 9 9 10 11 11 11 11 10 10 10 10 11 11
4 3 4 5 6 5 5 6 6 5 5 4 6 4 4 3 2 1 2 3 4 5 4 4 4 5 5 6 3 5 6 5 5 5 6 7 7 6 4 6 7 14 13 13 14 13 12 13 13 13 13 13 13 13 13 14 14 13 13 13 12 11 11 10 11 11 11 11 11 11 11 11 11 11
5 5 5 5 5 5 5 5 5 4 5 5 5 5 4 4 4 3 0 2 4 6 5 4 5 3 4 5 5 5 5 4 5 5 6 7 8 6 6 6 2 15 14 14 14 13 13 13 13 13 13 14 14 14 14 14 14 14 14 13 13 13 12 12 11 11 11 12 12 12 12 12 12 11
6 6 5 5 5 5 5 4 4 4 4 4 3 3 4 3 4 3 4 3 4 5 6 5 5 5 5 5 5 5 5 6 6 6 5 7 7 8 7 7 7 12 16 16 14 13 13 13 13 13 14 14 13 13 14 14 14 14 13 13 13 13 13 13 12 12 11 11 12 12 12 12 12 12
5 5 6 5 5 5 5 5 5 4 5 4 3 4 3 3 3 3 3 4 4 5 6 6 5 6 6 5 4 5 6 6 6 5 6 7 7 6 7 8 9 4 19 16 13 12 14 13 12 13 14 14 14 13 13 13 13 13 13 13 13 13 14 14 14 13 13 12 12 12 12 12 12 12
7 6 7 6 5 5 5 5 5 4 4 4 4 5 4 4 3 4 4 4 4 5 5 6 6 5 5 4 4 5 4 6 6 6 6 6 5 5 7 8 7 9 6 5 3 9 11 11 13 15 14 15 15 14 14 14 14 14 14 14 14 14 14 14 15 15 14 13 13 13 13 12 12 12
7 7 7 7 6 6 6 6 6 5 6 5 5 4 4 4 5 4 5 4 5 5 6 6 6 6 5 5 6 4 5 6 5 6 6 6 6 5 6 7 7 7 8 7 10 13 14 6 11 14 16 14 15 14 14 14 14 14 14 14 14 14 14 15 15 15 15 15 14 13 13 13 13 12
7 7 8 7 7 7 6 6 5 5 5 4 5 4 3 3 4 5 5 5 5 5 6 6 6 6 6 6 5 6 5 4 4 5 6 6 6 6 5 6 8 7 8 10 9 6 8 8 11 15 14 15 16 16 14 15 14 15 14 15 15 15 15 15 15 15 16 15 15 15 14 14 13 13
7 7 7 8 7 7 7 2 4 5 5 4 4 4 4 4 4 5 5 5 5 5 6 6 5 6 6 6 6 6 5 5 7 6 6 5 6 6 8 7 8 8 9 9 10 8 9 9 10 7 5 8 15 14 17 13 16 15 14 15 15 15 15 15 16 16 16 16 16 15 15 15 14 14
7 8 8 7 9 6 6 6 5 2 1 1 6 4 4 5 4 5 5 5 5 5 6 7 7 7 7 7 6 7 7 7 7 6 5 6 7 7 8 8 8 8 9 10 8 9 9 10 10 10 9 10 6 7 8 9 10 14 16 15 14 14 14 15 15 15 15 16 16 16 16 16 15 15
7 7 8 8 8 11 10 8 8 8 6 6 5 5 5 5 5 6 7 6 6 6 7 7 7 8 7 8 8 8 9 8 8 8 6 8 7 7 8 9 8 5 7 6 8 9 9 9 10 9 10 10 10 8 9 9 16 14 16 16 15 14 15 14 15 15 15 15 16 16 16 16 16 16
7 7 8 8 7 7 6 6 7 7 8 8 9 9 8 8 9 9 7 7 7 7 7 7 7 8 8 8 8 10 10 9 9 9 8 8 8 8 8 8 9 7 8 9 9 11 10 10 11 10 10 10 9 9 7 13 15 16 16 16 15 15 14 14 14 14 14 15 15 15 16 16 16 16
7 7 7 8 6 2 7 5 5 7 9 11 10 10 8 9 11 11 12 11 9 7 8 8 9 8 8 9 9 9 9 9 10 9 8 7 8 8 9 9 10 10 9 10 10 12 11 9 10 11 9 10 10 9 8 12 14 15 15 14 14 14 13 13 13 13 14 14 14 14 15 15 16 16
7 6 7 6 6 5 6 4 6 7 7 6 7 7 7 8 10 13 14 15 15 12 9 8 8 8 8 9 9 9 9 9 8 8 8 8 8 8 10 11 12 11 10 11 11 11 10 9 10 10 10 9 10 8 7 7 10 12 13 13 13 13 13 13 13 13 14 14 14 15 15 15 15 16
6 6 8 6 6 4 6 10 10 7 5 4 5 7 8 8 8 8 9 9 7 6 8 9 8 8 8 8 8 9 9 9 8 7 9 9 9 10 11 10 10 10 9 11 10 10 10 9 9 9 9 11 9 10 5 7 12 13 13 14 13 13 12 12 13 13 13 14 15 15 16 16 16 16
7 8 7 6 3 10 8 10 12 10 7 6 7 8 8 8 10 8 8 10 14 12 8 8 10 9 7 8 10 8 7 7 8 8 8 8 8 9 9 9 9 10 8 8 8 7 9 9 11 9 9 9 9 9 11 3 10 12 14 15 13 12 12 13 13 13 14 14 15 15 15 16 16 15
5 8 8 6 6 5 7 6 11 11 9 5 6 7 7 7 7 7 5 3 4 10 13 10 8 9 11 12 13 14 13 8 5 6 7 8 7 8 9 9 8 9 8 7 8 9 9 9 9 10 9 8 10 10 9 8 5 12 13 12 12 13 14 13 13 14 14 14 15 15 15 14 13 12
10 8 14 12 9 8 5 8 10 11 6 4 5 6 7 7 7 7 6 4 4 6 7 10 11 10 12 13 14 14 14 14 6 5 8 10 9 9 9 10 9 10 9 7 7 8 8 10 9 10 9 9 7 8 8 6 5 5 4 9 12 13 14 14 13 13 14 14 14 14 14 12 8 5
8 7 10 16 11 8 5 6 7 8 7 4 5 6 6 6 6 5 8 8 8 8 9 8 8 8 8 8 8 8 11 14 8 6 8 8 7 8 8 10 10 10 7 5 8 8 9 10 9 8 9 10 9 7 8 8 9 9 6 4 6 13 15 15 15 15 15 14 14 14 14 12 10 6
4 3 2 5 8 8 7 7 7 7 6 4 4 5 5 5 5 6 8 7 7 9 8 9 8 9 9 9 9 8 8 7 5 4 5 5 6 7 8 8 8 9 9 6 6 7 8 8 9 7 9 11 11 8 8 8 8 9 8 7 8 7 10 13 10 13 13 12 14 14 14 12 12 6
2 4 3 4 6 8 6 5 5 5 3 3 4 4 4 4 5 7 7 8 10 8 7 7 7 7 7 7 7 7 5 1 3 2 2 3 4 6 7 8 9 10 9 6 4 4 7 8 10 9 9 8 10 11 9 9 9 8 7 7 7 5 5 3 4 4 8 15 16 15 12 12 16 12
1 2 2 2 4 4 5 2 3 4 4 4 3 0 3 5 5 5 7 7 7 6 6 6 6 6 7 7 7 7 7 8 7 8 5 2 4 4 6 7 8 9 10 6 6 6 10 10 9 10 9 10 11 10 11 10 9 8 6 7 7 7 5 6 3 4 4 3 4 7 12 16 17 19
0 1 3 4 8 8 7 5 5 5 8 8 3 3 6 5 5 6 5 7 6 5 4 5 5 6 6 6 6 6 6 6 7 8 7 8 8 7 8 8 9 10 10 10 9 9 8 9 8 9 8 8 11 10 10 11 10 8 9 9 8 7 7 7 7 5 5 5 4 10 14 14 16 18
0 2 3 5 8 7 9 9 8 8 6 6 7 6 6 7 7 5 6 6 5 5 5 5 5 5 5 6 6 6 7 7 7 8 8 8 8 8 8 8 9 9 10 10 10 9 7 8 8 6 3 6 8 11 12 10 10 10 11 10 9 9 9 8 7 6 3 4 8 5 3 4 6 7
4 4 5 6 8 8 9 11 10 8 9 12 11 10 10 9 6 5 5 5 5 5 5 5 5 5 5 6 6 7 7 8 7 6 7 8 8 8 9 9 9 8 8 8 8 6 6 7 8 6 5 4 7 9 11 12 11 11 11 11 10 8 8 9 7 4 3 5 4 5 6 7 4 7
6 7 8 9 10 10 8 7 6 6 4 3 7 11 10 7 6 6 4 4 5 5 5 5 5 5 5 6 5 5 4 5 6 6 6 7 7 8 8 8 9 10 10 9 9 7 7 6 5 5 6 6 6 8 9 11 12 11 10 11 11 10 8 7 5 5 6 6 6 7 8 7 8 5
3 5 5 5 6 9 11 12 11 9 9 8 8 6 6 5 6 7 4 2 3 4 5 5 5 6 6 6 6 4 4 5 4 5 6 7 7 8 8 8 9 9 8 8 8 7 6 6 5 5 6 7 8 8 9 9 11 11 11 10 10 11 10 8 3 3 4 5 6 7 7 7 7 7
6 6 6 7 7 7 7 8 7 7 5 4 4 4 4 5 3 4 5 5 2 5 6 6 6 6 6 6 6 7 6 7 7 7 7 7 8 8 8 8 8 9 9 8 8 8 8 8 7 5 6 7 9 10 9 9 10 11 11 10 10 11 10 7 8 6 5 6 8 8 7 8 9 8
6 5 6 6 5 5 5 4 3 3 3 3 3 3 3 3 4 1 5 3 3 4 5 5 6 6 6 7 7 7 7 6 7 6 7 7 8 8 8 9 9 9 10 10 9 9 8 8 8 8 8 8 9 10 11 12 10 9 10 10 9 9 8 7 6 7 7 7 9 10 10 9 9 9
5 6 5 5 4 2 3 4 4 2 2 1 2 3 4 4 4 1 4 6 4 4 5 5 5 6 6 7 6 7 7 7 7 8 8 8 7 8 8 9 9 9 9 10 10 10 9 9 8 8 7 8 10 10 11 12 12 10 9 9 8 9 8 7 8 8 8 8 9 11 12 11 10 10
6 6 5 3 2 2 3 2 2 2 3 3 3 5 5 5 1 10 8 7 7 5 6 6 7 7 7 8 8 8 8 9 9 9 8 8 8 9 9 9 9 9 10 10 9 9 9 9 9 10 10 9 10 8 10 11 11 11 10 9 9 9 9 8 10 10 9 10 10 12 14 13 13 10
6 4 3 3 3 3 4 3 2 2 3 2 3 4 4 3 7 7 7 6 6 7 7 7 7 7 7 8 8 8 9 9 9 9 9 9 9 8 9 9 9 10 9 10 10 10 10 10 10 12 13 13 12 12 9 9 12 9 10 9 8 8 10 10 10 11 12 13 11 11 14 14 13 12
4 3 2 3 2 2 3 3 4 4 4 4 5 6 6 4 2 5 7 6 5 5 6 7 7 8 8 8 8 8 9 9 9 9 9 9 9 9 9 9 9 9 10 10 10 10 10 11 11 11 12 12 12 12 12 7 3 3 6 9 10 11 11 13 13 14 13 12 12 12 12 13 14 12
4 3 2 2 2 2 3 3 3 3 3 3 5 5 5 7 6 6 6 6 6 7 7 7 7 7 8 8 8 8 8 8 8 9 9 9 9 9 9 10 11 10 10 10 10 11 11 11 11 10 10 12 13 12 12 11 11 9 7 9 14 15 13 13 14 13 12 11 12 10 11 12 12 11
4 2 2 3 3 3 3 4 3 4 4 4 4 4 4 5 6 7 6 6 6 6 7 7 7 7 8 8 8 8 8 8 9 9 9 9 9 9 10 10 11 10 11 12 12 11 10 10 10 10 10 11 11 12 13 14 15 15 16 15 11 14 14 13 14 13 13 12 12 11 12 11 15 19
1 2 5 4 4 4 3 3 3 4 5 5 5 5 5 6 6 6 6 6 6 6 7 7 7 8 7 8 8 8 8 9 9 9 9 10 10 10 10 10 11 12 12 13 12 11 11 11 10 9 12 13 13 14 15 15 15 15 15 14 16 14 12 12 13 13 14 13 13 16 16 13 14 11
6 5 5 4 5 4 5 4 6 5 4 4 5 5 5 5 6 6 6 7 7 7 7 8 8 8 8 8 9 9 9 9 9 9 10 10 10 10 11 12 11 11 12 13 12 12 11 10 12 17 15 13 13 13 13 13 14 13 14 14 16 14 11 8 9 13 14 13 12 14 15 15 15 15
2 2 2 2 3 3 3 3 3 4 4 5 5 5 5 5 5 6 7 7 7 8 7 7 7 7 8 8 9 9 9 10 10 10 10 10 11 11 12 12 12 11 12 12 12 13 12 12 13 12 12 12 12 13 14 14 15 14 13 13 13 13 18 17 13 9 9 9 11 16 16 16 14 15
3 3 2 2 3 3 4 3 4 4 4 5 5 5 5 6 6 6 6 6 6 6 7 8 8 9 9 9 9 9 9 10 10 11 11 12 12 12 12 11 11 12 12 13 13 13 13 13 12 13 13 12 12 12 14 14 15 15 15 14 14 13 14 17 19 21 20 21 20 16 14 14 15 17
2 3 3 3 3 3 3 4 4 4 5 5 5 6 6 6 6 7 7 7 7 8 9 9 8 8 9 9 9 9 9 10 11 11 12 11 11 11 12 12 12 13 12 12 13 13 13 13 12 13 13 13 13 14 15 16 15 15 15 15 14 14 16 16 15 17 18 17 18 21 24 24 22 25
3 4 4 4 4 4 4 4 4 5 5 5 5 6 6 6 6 6 6 7 7 7 7 7 8 8 9 9 10 10 9 11 11 10 10 11 11 11 11 12 12 12 12 12 13 13 12 13 13 12 12 13 13 13 15 15 16 16 16 16 17 15 15 14 16 17 17 16 16 19 19 21 21 21
Wind_Direction
280 232 225 241 272 294 332 304 293 39 8 317 321 281 331 62 292 306 318 323 307 309 306 59 204 78 192 215 269 226 237 242 252 335 302 315 271 176 196 185 199 212 213 220 227 229 223 228 231 230 227 227 228 231 235 238 228 210 207 204 205 207 223 233 230 225 220 220 221 227 241 248 241 242
253 279 279 253 266 263 254 229 254 79 159 285 272 282 286 183 273 321 303 303 296 299 324 315 112 200 261 295 304 306 331 141 259 335 313 299 314 110 255 183 194 210 215 214 220 225 228 227 230 230 230 229 227 228 230 232 235 230 222 218 211 207 207 220 233 233 228 221 222 226 228 231 231 229
266 286 286 298 285 299 303 312 289 274 247 216 244 288 290 291 316 302 295 292 305 323 305 311 334 325 307 11 328 322 330 195 332 319 324 305 332 299 269 209 200 204 215 216 213 218 224 231 231 229 230 231 229 225 226 228 229 232 231 222 218 212 207 207 217 230 233 229 224 227 229 231 227 226
239 247 266 286 283 284 283 274 280 270 249 283 295 292 310 321 295 282 291 296 303 304 307 319 315 317 351 324 328 335 290 23 189 345 301 300 269 258 275 198 199 193 210 217 210 213 220 226 231 232 230 231 229 226 225 225 226 226 229 229 225 213 209 204 210 216 225 232 231 227 230 231 233 229
255 239 261 266 273 285 283 277 274 276 258 241 237 254 258 257 260 279 301 295 295 304 318 316 321 332 326 329 336 313 322 301 343 333 306 304 285 291 311 252 189 191 201 211 208 208 213 217 227 233 235 234 233 231 230 228 225 224 225 226 227 220 208 204 211 214 215 222 229 232 230 232 235 235
257 235 234 248 249 241 253 270 273 264 272 257 250 228 237 247 255 280 303 291 301 301 300 310 305 303 318 305 332 324 301 321 309 296 307 292 298 306 339 310 176 190 202 206 207 203 202 213 219 228 232 235 236 235 234 233 230 227 223 222 222 222 219 212 213 215 214 217 221 226 231 232 234 236
228 234 241 245 248 246 242 242 253 271 277 299 322 317 337 322 316 315 311 288 295 305 303 305 298 311 311 312 311 303 309 304 289 310 299 315 313 318 317 310 328 185 205 208 208 196 200 206 214 219 226 231 232 234 234 232 233 231 225 221 218 219 222 222 219 218 216 215 219 220 222 227 231 233
223 230 237 242 244 242 246 267 288 295 301 295 280 281 283 281 288 279 270 271 280 295 302 301 308 317 314 302 305 305 314 313 329 302 314 300 304 322 314 310 312 180 209 214 210 198 205 207 208 213 220 225 229 232 232 233 232 232 231 225 219 219 219 223 225 224 221 216 216 219 220 221 224 229
232 233 238 232 229 236 244 237 249 247 239 251 264 266 259 266 272 283 295 288 285 290 295 302 303 304 287 289 294 311 310 319 301 318 310 306 303 305 309 307 322 211 205 218 212 202 213 212 211 217 218 219 224 225 227 229 231 231 232 230 224 219 219 219 223 225 225 221 217 217 219 220 221 222
227 230 233 236 241 246 236 244 240 255 273 265 262 267 272 278 290 291 280 277 274 277 282 287 294 280 295 301 308 301 302 301 316 307 299 299 311 316 314 322 320 321 325 330 229 218 226 218 221 221 218 220 220 223 222 223 224 225 226 228 227 226 221 219 220 223 225 225 222 219 218 219 218 219
221 228 228 225 235 239 241 244 241 238 240 245 262 268 280 275 272 271 280 271 272 277 279 281 283 288 300 323 315 317 307 288 278 297 302 308 316 320 312 303 310 311 317 310 269 270 282 241 208 221 224 222 225 224 221 221 221 220 221 221 224 226 226 222 220 221 222 225 225 223 220 219 220 217
230 222 229 232 220 222 229 240 246 242 259 265 265 267 272 289 290 289 291 298 295 294 297 299 308 323 313 290 296 297 271 282 289 287 307 298 307 301 291 295 308 311 300 297 307 278 235 255 222 225 218 223 226 224 224 224 219 217 217 217 219 220 223 223 221 219 220 222 225 225 223 222 221 220
236 246 237 237 234 219 218 159 18 14 27 320 296 283 283 286 290 286 285 290 295 293 291 295 295 287 284 284 274 285 308 310 309 296 281 294 300 306 305 303 298 298 296 302 305 308 316 300 305 310 267 229 224 225 219 219 211 215 214 218 217 219 219 221 222 220 219 220 222 223 224 223 222 222
243 240 247 239 240 144 158 155 188 216 229 294 292 310 308 302 297 294 286 281 277 280 282 282 289 292 294 303 308 313 305 294 284 299 330 316 307 294 293 291 288 293 301 302 303 299 298 304 308 300 290 295 220 241 210 214 210 202 212 214 216 218 221 220 222 222 221 220 220 221 222 223 223 222
250 245 239 252 163 155 172 181 177 196 206 222 230 250 263 262 268 271 275 277 286 287 284 286 286 291 300 305 311 304 302 307 325 318 310 305 308 306 303 298 294 273 295 303 300 291 295 302 297 290 294 296 298 291 289 177 198 188 196 205 210 215 216 219 220 223 223 223 222 221 221 222 223 222
242 249 251 245 235 210 205 245 199 197 205 216 221 230 234 238 239 254 260 268 272 274 278 283 292 301 299 302 305 308 316 325 320 314 308 302 299 298 293 287 291 309 308 303 299 294 296 294 296 298 292 288 288 291 131 158 170 181 187 196 203 208 213 216 220 221 222 224 225 224 223 223 224 224
239 249 259 268 283 85 149 179 199 196 209 209 217 222 225 233 243 244 249 254 261 279 283 286 289 292 309 309 305 311 315 315 304 305 302 307 307 305 300 298 306 312 320 302 290 291 294 297 297 296 294 302 305 301 177 191 187 182 185 191 199 206 211 216 218 221 222 223 225 226 227 226 225 225
239 252 259 257 255 257 235 250 243 238 238 225 213 219 229 240 235 227 231 238 238 238 257 278 278 282 289 294 301 310 308 305 308 312 310 319 316 312 304 307 300 295 297 291 299 293 292 298 293 290 296 298 296 277 299 209 200 196 197 198 203 207 213 216 218 219 222 222 222 222 223 226 228 228
246 219 246 247 251 267 40 29 13 24 349 293 292 281 272 259 263 260 248 238 233 241 251 251 260 270 282 293 321 328 324 323 318 312 306 303 299 294 291 286 283 284 279 292 296 292 295 302 294 300 303 305 306 306 315 201 203 202 204 209 207 210 214 217 219 221 223 224 224 223 222 221 224 226
244 242 253 252 348 52 35 20 24 24 357 342 304 292 298 320 318 335 354 355 336 315 284 267 284 312 340 335 317 318 316 311 308 311 308 302 289 282 284 286 294 292 296 290 295 296 301 307 304 308 317 316 311 311 310 279 201 205 212 212 211 215 218 217 219 221 224 226 228 228 226 224 223 224
258 26 21 50 81 92 62 20 27 20 359 327 310 306 298 290 291 288 290 89 284 301 315 323 321 308 300 292 290 292 294 287 307 308 302 291 289 288 290 291 293 293 302 316 313 312 308 315 318 318 320 324 317 307 309 321 262 223 219 214 216 222 223 223 220 222 224 224 227 229 231 230 227 227
66 46 44 59 74 74 59 26 32 13 348 328 324 317 311 311 306 324 347 321 310 277 278 296 284 271 272 277 275 272 269 271 248 254 271 293 309 303 301 298 299 306 308 315 342 321 310 319 322 318 312 305 299 309 312 312 308 211 215 230 235 232 230 228 227 227 228 229 229 229 228 227 210 210
39 17 26 47 49 62 65 46 46 26 14 347 329 326 312 307 311 341 346 333 328 329 323 313 303 297 284 273 281 275 248 244 225 221 251 279 290 298 300 299 311 308 308 360 4 326 319 318 316 319 317 307 305 305 310 317 311 314 319 266 226 235 244 243 235 231 232 231 231 230 226 212 183 219
29 38 72 81 63 69 54 44 39 42 16 11 324 323 310 315 325 345 322 318 319 314 305 301 301 295 292 286 283 279 273 242 211 226 257 274 285 286 287 293 292 290 291 316 355 319 308 305 305 313 304 306 307 313 309 306 311 312 308 299 299 283 237 242 259 255 252 247 240 234 225 200 190 216
115 61 83 86 70 54 50 44 30 18 6 334 311 305 327 359 335 315 305 311 307 295 294 289 289 293 300 305 301 299 305 314 172 202 260 279 258 266 284 294 295 291 293 306 321 302 298 303 298 302 298 297 297 302 311 309 305 302 302 304 302 294 302 255 239 253 220 234 244 247 239 206 202 215
174 264 319 6 92 83 68 24 16 303 290 266 267 17 28 328 330 313 297 290 288 296 304 308 313 318 315 310 310 321 337 334 347 348 329 232 235 245 258 269 280 292 295 297 188 279 303 302 303 306 309 310 306 306 305 301 298 301 307 304 301 300 299 293 260 250 274 281 260 227 233 221 211 216
308 244 284 79 40 7 350 344 310 288 290 278 228 24 300 292 291 274 279 288 291 287 300 317 314 309 301 314 328 330 343 334 350 334 323 312 302 290 295 293 292 293 301 306 303 295 289 291 301 306 311 312 302 297 291 302 309 317 303 305 307 305 296 296 296 308 310 324 262 233 234 225 221 222
233 328 21 7 348 326 318 307 303 294 283 280 308 283 280 281 273 272 278 264 272 296 308 314 309 311 325 324 330 336 338 331 328 313 304 308 318 319 307 298 290 294 294 293 290 285 286 294 297 296 317 304 301 298 302 302 298 304 305 306 306 305 310 316 315 311 338 279 286 294 296 240 209 219
33 2 318 303 304 299 291 285 282 268 251 247 254 256 264 270 269 272 271 289 318 308 305 301 314 325 334 339 337 347 336 324 311 318 332 342 324 313 322 327 321 309 297 292 294 315 327 323 321 341 330 298 294 294 299 298 301 303 309 314 305 311 311 303 302 314 276 265 269 288 291 288 265 182
284 288 282 277 270 268 256 256 257 269 290 230 238 251 257 265 263 263 282 330 317 311 305 316 317 320 328 326 338 314 318 327 327 337 335 329 317 325 322 323 320 309 303 312 314 329 335 333 343 336 322 311 301 303 306 310 307 307 307 301 306 304 298 309 319 329 320 327 321 307 292 292 290 278
293 280 271 288 287 283 286 276 268 268 272 274 261 247 248 253 252 240 229 286 319 303 315 319 325 330 335 332 307 303 322 286 295 321 323 316 325 321 318 316 307 306 308 308 310 314 315 310 314 331 317 315 309 300 306 305 300 300 300 302 306 303 310 314 338 293 280 289 291 279 280 285 291 282
313 301 287 276 260 254 249 243 232 224 224 254 267 275 286 276 288 305 282 268 299 10 1 350 349 338 328 318 328 322 319 328 333 337 330 330 316 311 313 306 305 306 307 312 314 325 320 310 315 314 303 302 300 300 298 293 291 295 297 299 299 302 308 317 311 316 319 314 305 302 297 292 287 286
299 283 263 253 256 250 254 258 271 274 239 239 291 284 268 286 271 325 45 42 17 6 357 348 333 325 328 324 316 316 318 326 322 320 321 316 304 305 307 301 302 305 311 312 312 309 307 309 308 304 298 291 287 288 288 287 283 285 289 292 301 302 305 306 316 311 305 301 300 301 297 292 283 277
292 282 273 256 243 260 285 278 272 287 335 345 249 246 190 226 252 312 23 14 40 3 336 322 322 330 326 314 317 320 323 329 327 330 318 307 310 307 304 305 307 310 311 310 310 312 312 308 304 300 299 293 285 274 271 275 280 285 285 293 292 292 295 303 301 303 298 293 295 294 291 290 285 276
256 263 270 292 262 221 246 248 313 348 293 316 336 322 321 272 85 73 43 19 352 336 330 341 339 339 324 322 325 326 331 326 321 312 309 312 315 311 311 309 313 314 310 309 311 313 311 316 326 319 308 297 292 274 247 249 274 277 287 286 291 296 307 314 312 306 303 297 290 285 288 282 279 276
293 299 311 323 324 347 312 339 340 332 340 343 330 310 291 318 51 48 48 17 346 339 333 338 331 320 324 323 329 331 326 321 312 316 320 318 312 313 313 311 309 312 316 316 315 319 326 327 327 318 311 307 303 303 299 227 224 269 292 304 316 322 313 311 303 301 295 289 283 280 281 281 283 282
303 327 329 278 328 348 323 351 5 10 357 354 0 8 349 330 341 32 30 359 337 331 339 327 320 328 324 323 327 323 316 317 318 321 316 318 320 316 312 313 317 319 314 315 319 322 325 318 312 302 300 302 302 303 300 316 318 8 345 330 321 312 313 304 296 290 284 281 279 277 275 282 283 283
296 275 302 359 318 325 6 353 346 332 337 340 352 342 345 343 335 348 7 346 335 329 333 328 327 318 319 329 321 314 316 314 316 316 319 320 318 319 323 323 321 319 319 320 320 315 309 301 299 304 308 307 307 305 311 326 316 303 341 329 307 300 294 286 289 288 289 289 288 287 289 291 293 297
267 333 347 304 11 4 358 20 353 348 340 326 329 327 327 335 333 333 331 327 328 327 333 324 316 318 321 312 311 315 316 321 319 319 318 316 319 320 320 317 314 318 319 313 309 305 306 306 312 312 321 329 321 314 312 304 299 300 296 286 275 281 274 278 281 285 291 296 299 306 299 292 285 283
352 346 13 356 9 344 354 351 339 349 327 333 338 349 337 324 340 328 317 323 330 332 310 301 308 316 310 318 323 322 320 320 322 319 319 320 321 319 313 321 322 316 307 302 304 305 306 306 308 330 334 318 309 307 298 290 284 280 280 277 246 234 266 287 292 303 304 299 298 296 296 297 294 295
36 21 33 12 4 355 349 357 356 349 334 326 316 309 319 342 324 313 324 320 311 299 312 317 319 322 321 326 324 325 326 324 321 321 319 315 314 319 330 328 309 305 303 301 303 303 305 313 322 318 305 297 294 293 289 286 287 291 295 295 302 296 271 246 275 291 287 293 296 298 298 299 302 300
353 354 355 359 351 338 319 337 326 319 314 320 317 326 327 316 301 316 303 294 319 326 313 310 316 317 316 323 326 328 325 322 318 316 322 325 324 321 317 311 306 307 307 307 308 308 310 310 306 306 305 306 303 296 291 292 293 296 297 305 301 295 288 283 271 259 265 289 302 294 287 288 288 286
316 323 320 331 329 327 334 328 316 314 318 323 317 323 307 302 312 312 321 326 321 315 324 334 338 336 335 333 332 331 328 326 331 331 327 321 315 311 309 307 310 312 311 308 308 308 310 314 315 310 306 302 300 300 297 300 300 298 299 299 300 309 310 308 300 289 276 268 260 257 263 274 286 281
344 311 311 326 314 306 299 310 320 319 316 317 320 309 311 324 321 324 326 333 341 340 345 339 335 335 335 337 338 336 331 331 329 322 314 313 313 312 313 314 315 313 310 309 310 312 312 310 311 316 313 308 309 303 299 303 300 303 304 303 304 304 300 302 299 293 284 267 259 258 258 253 251 261
334 329 320 323 312 303 302 309 316 320 320 317 311 316 318 314 322 328 332 334 333 334 328 328 330 335 338 337 335 327 325 321 314 311 314 313 313 315 314 314 312 313 312 312 310 310 315 315 314 312 304 305 309 306 305 301 301 303 302 301 302 301 301 305 308 309 307 303 300 300 299 294 285 275